Wind_Speed
30 25 23 22 21 17 16 24 27 21 25 26 32 31 28 24 21 19 19 19 22 24 23 23 23 24 24 23 24 26 26 28 30 29 26 25 26 24 22 23 22 21 20
30 29 27 25 21 22 19 18 25 30 25 28 29 36 34 31 27 23 21 19 18 22 21 21 23 22 24 23 23 22 24 24 26 28 28 26 23 24 24 22 23 22 20
35 32 32 29 26 25 24 23 23 30 33 29 32 32 40 38 33 29 26 23 22 20 16 14 19 23 21 20 21 20 22 19 19 24 25 27 23 23 21 23 24 24 24
38 38 37 35 35 30 30 27 27 27 35 37 34 36 35 43 39 35 30 27 23 23 20 18 15 16 24 25 21 22 19 17 16 16 16 16 16 15 17 18 21 25 29
39 41 42 41 39 39 36 31 32 32 33 40 42 39 39 39 45 42 37 32 29 25 23 18 20 18 17 25 29 25 21 19 18 14 14 16 14 14 15 14 18 21 24
41 41 42 44 46 44 43 40 36 35 37 38 44 47 43 42 43 48 44 38 34 30 27 23 20 23 20 20 23 29 26 21 19 18 8 12 17 6 1 3 6 7 8
46 46 47 48 47 47 47 45 43 40 37 37 41 48 47 44 45 46 49 45 39 34 30 25 23 24 23 22 21 24 29 28 20 18 18 15 10 10 7 4 3 7 10
49 50 50 51 51 50 49 47 46 45 41 39 41 46 49 51 49 48 49 50 45 40 33 29 26 26 26 26 25 21 24 26 25 22 22 16 12 12 8 5 5 6 12
48 49 51 52 54 54 53 50 48 47 43 44 43 45 54 56 55 50 50 50 43 46 40 33 29 29 33 30 30 25 27 26 23 25 24 22 16 14 10 9 6 9 14
54 52 52 52 54 56 56 52 50 46 42 42 47 47 53 56 55 53 54 51 49 63 46 40 34 30 35 38 34 30 30 30 31 29 26 18 16 20 20 13 12 14 13
59 57 53 54 55 57 56 55 48 47 43 42 47 51 54 62 68 64 65 58 59 58 46 45 42 38 37 40 38 36 32 34 34 32 25 25 26 22 26 22 18 18 19
63 61 59 55 53 54 55 53 46 46 44 43 49 56 63 69 75 72 63 59 57 62 58 49 51 45 43 41 42 42 39 35 38 37 33 34 32 26 28 23 25 20 22
66 63 61 56 52 50 51 48 44 42 41 43 49 51 58 76 72 69 63 57 57 62 62 50 55 49 49 45 41 41 42 40 41 37 34 37 34 32 29 27 27 27 26
68 64 59 54 49 47 44 42 40 38 39 42 46 45 51 71 74 73 63 60 58 58 61 62 57 50 50 47 41 37 42 45 45 36 36 37 39 34 28 30 29 30 27
67 62 53 49 44 38 36 35 33 35 37 38 37 37 49 70 74 70 67 62 55 55 64 58 54 50 45 43 41 38 37 41 45 36 32 31 40 37 32 34 34 32 28
66 58 48 43 34 29 27 26 27 29 29 31 31 35 42 55 68 75 68 58 55 64 63 58 54 48 47 42 36 35 35 39 36 31 30 34 37 37 37 34 33 30 34
59 51 39 35 25 22 21 17 17 16 18 21 21 31 44 50 56 61 59 59 61 61 59 52 52 50 46 47 42 40 40 38 38 40 37 39 38 36 35 36 33 35 42
49 37 31 20 15 18 17 18 20 16 16 19 26 39 42 39 46 51 56 57 56 57 53 49 46 48 47 50 48 45 45 45 41 42 41 46 43 42 36 37 37 39 42
40 26 16 10 19 16 23 34 36 30 23 22 26 31 43 42 42 46 48 47 49 57 53 52 50 50 52 52 53 47 45 46 45 44 46 49 45 46 48 43 42 47 48
31 28 16 21 24 23 30 40 38 27 25 25 34 31 37 42 47 43 46 45 51 48 50 54 47 49 47 43 47 48 42 49 44 50 52 54 57 56 52 50 52 55 54
30 24 26 33 22 32 36 45 40 35 33 34 40 39 38 39 40 41 47 50 51 51 53 51 56 50 47 45 48 50 50 51 51 42 45 47 49 48 47 50 54 58 57
35 27 27 35 24 42 42 48 46 45 40 41 43 39 39 41 42 34 49 51 53 56 62 63 59 56 54 53 54 49 44 59 56 47 47 46 50 53 56 57 59 61 61
44 32 21 34 30 50 47 54 51 51 53 51 46 43 51 46 46 48 49 48 52 58 64 69 61 58 60 58 52 48 47 44 49 52 52 53 54 55 58 59 62 64 60
46 31 24 27 33 54 49 51 55 53 55 57 53 50 49 52 53 51 50 50 52 49 64 64 60 65 61 61 55 53 54 51 53 56 62 60 58 59 59 61 64 66 64
47 40 33 34 34 45 54 50 52 55 56 59 62 58 54 48 45 46 46 51 51 51 54 60 66 67 71 61 59 56 56 58 59 64 62 58 56 55 55 58 56 57 59
49 44 42 35 34 41 52 57 56 54 55 55 54 55 54 56 52 54 54 53 50 52 55 56 60 60 64 63 65 66 67 66 66 66 69 73 73 72 73 70 67 70 72
Wind_Direction
326 322 318 311 305 297 281 279 283 269 259 250 228 223 218 220 211 206 201 203 211 209 209 209 208 212 210 209 214 222 226 230 229 228 220 224 223 226 232 229 233 238 238
317 314 310 306 301 297 291 276 267 274 258 254 247 228 222 221 217 210 208 208 212 205 205 216 222 223 220 216 222 222 222 219 217 218 216 215 220 222 229 232 234 236 240
315 311 308 303 300 294 289 282 269 257 265 249 247 242 228 223 222 216 211 210 203 200 195 196 212 223 224 220 221 222 226 230 223 215 217 222 223 227 235 242 243 250 252
314 310 306 305 301 293 288 282 270 259 251 259 243 243 239 229 221 223 218 213 212 209 207 206 198 205 214 219 217 220 225 217 192 200 195 200 210 221 238 246 256 258 252
307 305 304 303 300 297 291 281 277 263 253 247 253 242 238 233 225 221 221 218 215 210 210 209 205 195 200 213 219 218 219 216 208 201 205 216 217 235 245 272 277 269 260
301 300 300 299 299 296 292 288 277 267 260 252 245 249 239 236 231 224 221 222 218 217 212 209 209 204 198 197 202 209 209 214 213 202 194 162 155 146 187 124 99 50 265
303 302 301 298 294 291 288 285 280 272 262 257 246 243 246 234 234 228 222 220 223 222 217 209 211 205 197 187 181 188 200 205 205 196 160 144 150 156 147 142 61 33 25
302 300 298 295 293 289 286 282 277 273 265 255 247 238 239 238 230 230 222 221 221 223 223 214 208 201 194 188 183 181 179 177 180 181 184 181 170 174 189 223 288 312 313
296 295 294 293 292 289 285 281 276 272 269 257 247 237 231 233 231 226 225 218 222 226 221 222 216 202 196 193 193 187 188 191 195 187 188 195 205 213 211 224 260 300 303
297 295 293 290 289 287 284 280 277 273 267 254 249 237 227 225 227 233 223 215 200 224 220 218 217 212 203 199 200 200 194 201 198 197 189 196 227 240 234 236 259 271 298
302 299 294 290 287 285 282 280 277 275 268 256 246 234 225 218 211 216 220 217 211 213 219 219 216 215 211 206 205 204 203 207 206 201 198 205 212 234 228 238 255 269 283
304 301 297 292 286 282 280 278 277 273 268 259 253 243 228 216 214 215 215 210 210 209 207 223 223 218 218 210 207 205 206 209 210 211 213 219 221 224 232 243 255 269 307
303 300 297 291 286 279 277 276 275 272 269 265 255 246 226 215 212 212 208 207 210 213 210 216 215 218 219 214 213 213 214 211 213 218 221 221 221 224 230 244 257 272 294
304 301 297 290 283 278 275 272 270 269 269 260 252 242 227 213 207 208 210 208 211 212 210 213 218 218 218 214 211 214 216 217 216 224 227 227 226 227 230 244 259 274 291
304 301 295 286 280 274 265 267 269 269 266 257 248 232 219 210 208 207 207 205 208 211 206 208 207 211 212 210 208 210 209 220 220 218 234 236 233 238 244 253 261 273 285
305 303 296 286 276 261 252 256 262 264 262 251 228 220 213 207 207 204 207 204 199 195 195 193 203 211 217 214 206 215 224 216 219 230 230 232 234 238 244 249 261 271 274
305 300 293 282 264 242 237 238 242 236 228 216 207 207 205 200 201 197 193 191 194 196 201 207 210 216 215 222 216 217 218 216 219 222 229 232 235 241 248 254 266 264 270
300 295 285 271 244 231 210 186 144 128 154 165 176 181 184 183 187 192 193 203 210 210 209 208 215 224 235 222 222 218 221 229 230 231 234 239 239 241 247 257 259 261 264
292 277 252 221 236 205 195 165 155 149 158 152 159 181 186 185 189 194 199 207 216 211 210 218 224 224 222 224 219 222 228 230 233 240 240 239 242 247 250 257 251 269 269
264 263 202 215 229 199 193 171 160 170 180 184 175 181 192 201 198 200 205 212 211 219 227 223 226 226 221 219 229 230 236 240 245 245 249 246 254 259 259 257 260 263 265
226 230 218 212 215 189 188 175 178 188 195 195 184 187 185 191 204 208 211 215 217 224 223 230 223 225 224 228 230 234 238 235 233 254 253 252 260 257 262 266 261 257 261
211 212 223 212 208 188 188 186 192 194 197 204 197 193 200 197 206 211 215 216 220 223 228 230 233 233 226 233 230 234 241 237 245 255 259 262 261 263 261 259 258 259 263
203 209 229 228 213 189 195 194 201 205 206 199 197 196 200 207 207 212 218 225 228 231 227 235 240 241 236 235 243 251 252 253 247 252 252 255 260 258 257 257 255 257 262
201 200 195 229 212 194 200 203 207 212 211 202 202 205 208 211 211 215 218 225 228 231 232 241 238 236 244 241 249 251 254 249 250 250 253 255 255 254 254 255 257 258 257
202 196 204 224 222 204 204 209 214 213 216 212 209 212 214 219 220 226 231 235 234 236 232 236 237 238 239 250 253 254 254 253 252 253 248 247 249 255 258 260 259 259 260
213 205 204 213 216 211 205 215 214 216 218 224 222 220 222 225 229 233 236 239 243 244 243 246 247 246 248 253 253 254 255 256 255 254 255 250 252 254 256 266 268 270 265
Height
10908 10908 10906 10904 10902 10901 10902 10899 10897 10902 10903 10906 10909 10912 10914 10917 10918 10920 10922 10925 10928 10932 10936 10938 10940 10942 10944 10947 10949 10950 10952 10953 10954 10956 10958 10961 10963 10966 10968 10970 10973 10975 10975
10904 10901 10899 10898 10897 10895 10895 10895 10894 10892 10897 10899 10902 10906 10909 10912 10914 10917 10920 10921 10924 10927 10931 10935 10938 10939 10942 10944 10945 10948 10948 10949 10950 10952 10954 10957 10960 10962 10963 10966 10968 10971 10972
10895 10892 10890 10889 10890 10889 10888 10888 10888 10888 10886 10892 10894 10897 10901 10905 10910 10913 10915 10917 10920 10923 10926 10928 10933 10936 10938 10941 10943 10945 10946 10948 10948 10949 10951 10954 10958 10959 10961 10963 10965 10967 10968
10885 10881 10879 10878 10877 10880 10879 10880 10880 10880 10880 10880 10884 10887 10892 10898 10904 10908 10911 10915 10917 10919 10923 10924 10926 10929 10933 10935 10939 10941 10944 10945 10946 10948 10950 10951 10955 10957 10958 10959 10960 10961 10962
10879 10873 10869 10866 10865 10863 10865 10869 10869 10870 10871 10871 10872 10877 10881 10886 10894 10900 10905 10909 10913 10915 10918 10922 10922 10923 10926 10929 10932 10937 10941 10944 10945 10947 10949 10951 10953 10954 10955 10956 10955 10954 10955
10871 10868 10864 10858 10853 10851 10851 10852 10855 10857 10858 10861 10862 10865 10870 10876 10882 10889 10896 10902 10906 10910 10913 10916 10918 10918 10920 10922 10924 10929 10935 10940 10944 10946 10948 10950 10951 10952 10953 10952 10952 10951 10950
10857 10854 10850 10847 10845 10841 10838 10837 10839 10841 10844 10846 10851 10853 10857 10866 10870 10878 10886 10893 10900 10905 10908 10910 10912 10915 10917 10919 10920 10922 10925 10932 10938 10943 10946 10947 10947 10948 10949 10949 10949 10946 10945
10846 10841 10837 10833 10829 10826 10824 10823 10823 10824 10828 10831 10836 10839 10844 10849 10858 10865 10873 10882 10891 10899 10905 10906 10907 10909 10913 10917 10920 10922 10923 10923 10927 10936 10941 10943 10944 10944 10945 10944 10943 10942 10941
10836 10830 10824 10818 10812 10808 10807 10806 10806 10807 10811 10813 10816 10821 10827 10834 10843 10853 10862 10874 10890 10896 10898 10902 10904 10904 10908 10911 10914 10918 10921 10923 10923 10922 10930 10935 10939 10940 10940 10939 10939 10939 10938
10819 10816 10811 10805 10798 10792 10787 10787 10787 10789 10792 10794 10796 10802 10811 10820 10829 10838 10850 10866 10858 10885 10887 10890 10894 10899 10903 10905 10906 10909 10914 10916 10919 10921 10920 10926 10933 10934 10934 10935 10935 10934 10933
10801 10797 10794 10788 10781 10774 10770 10768 10770 10768 10772 10775 10777 10782 10791 10802 10807 10809 10829 10847 10858 10867 10875 10880 10882 10887 10891 10896 10899 10902 10905 10910 10912 10915 10918 10919 10921 10926 10928 10929 10929 10929 10930
10782 10776 10771 10768 10764 10757 10751 10751 10752 10751 10751 10753 10754 10758 10768 10778 10785 10795 10814 10830 10840 10848 10857 10866 10874 10878 10883 10888 10891 10894 10897 10904 10907 10910 10911 10912 10914 10915 10921 10924 10924 10924 10924
10763 10758 10752 10747 10742 10739 10735 10735 10735 10733 10732 10730 10730 10733 10742 10755 10770 10785 10799 10812 10824 10837 10844 10853 10861 10866 10875 10881 10886 10888 10892 10893 10899 10903 10905 10906 10906 10910 10911 10914 10917 10918 10918
10746 10739 10733 10728 10725 10723 10720 10719 10719 10717 10714 10711 10710 10715 10723 10741 10756 10769 10787 10801 10813 10821 10833 10841 10849 10856 10866 10872 10875 10880 10882 10885 10890 10895 10899 10903 10902 10903 10904 10907 10910 10912 10912
10726 10719 10717 10711 10709 10709 10708 10706 10703 10701 10700 10699 10701 10706 10713 10726 10743 10758 10771 10787 10800 10812 10822 10832 10840 10848 10855 10862 10866 10870 10875 10881 10884 10887 10888 10892 10895 10898 10896 10899 10901 10904 10904
10707 10702 10700 10697 10696 10697 10697 10696 10694 10693 10693 10691 10695 10703 10710 10721 10734 10746 10764 10780 10792 10804 10814 10823 10832 10840 10844 10849 10857 10862 10867 10872 10875 10878 10880 10884 10887 10889 10888 10889 10893 10895 10896
10692 10686 10686 10684 10685 10685 10687 10689 10690 10689 10690 10690 10694 10703 10710 10719 10732 10746 10760 10774 10784 10796 10806 10814 10822 10828 10834 10840 10843 10847 10853 10857 10860 10865 10870 10874 10877 10878 10879 10880 10884 10885 10885
10679 10676 10675 10676 10677 10678 10681 10684 10685 10691 10693 10696 10697 10699 10709 10720 10730 10744 10756 10767 10778 10788 10798 10805 10812 10818 10821 10826 10829 10837 10844 10848 10851 10856 10859 10863 10864 10867 10869 10871 10872 10875 10874
10667 10666 10667 10668 10669 10673 10678 10679 10682 10687 10692 10694 10698 10704 10711 10717 10727 10739 10749 10759 10769 10779 10788 10794 10801 10808 10812 10815 10822 10828 10834 10838 10841 10845 10849 10852 10854 10857 10859 10860 10862 10863 10863
10657 10657 10657 10660 10665 10669 10675 10677 10681 10686 10687 10690 10694 10700 10707 10717 10728 10737 10745 10753 10763 10771 10779 10785 10791 10797 10802 10806 10812 10816 10821 10826 10830 10834 10837 10840 10842 10844 10845 10848 10850 10851 10848
10647 10649 10649 10652 10658 10662 10667 10672 10675 10679 10682 10686 10689 10697 10703 10711 10721 10731 10739 10748 10755 10762 10768 10772 10780 10786 10791 10795 10799 10802 10808 10813 10816 10819 10822 10825 10829 10830 10832 10833 10835 10837 10838
10637 10639 10640 10645 10651 10657 10661 10665 10667 10671 10675 10682 10687 10694 10703 10709 10716 10719 10728 10737 10744 10749 10756 10763 10771 10776 10779 10784 10787 10792 10796 10799 10801 10804 10806 10810 10812 10815 10817 10818 10819 10820 10823
10627 10630 10634 10636 10644 10648 10652 10656 10660 10663 10668 10676 10684 10689 10696 10702 10708 10715 10718 10725 10730 10733 10741 10751 10758 10763 10767 10771 10774 10776 10779 10783 10787 10791 10793 10795 10797 10798 10800 10802 10803 10804 10805
10617 10622 10627 10626 10634 10641 10644 10649 10652 10657 10661 10670 10678 10684 10689 10694 10698 10704 10709 10715 10719 10722 10728 10736 10740 10747 10752 10757 10759 10762 10765 10767 10770 10773 10774 10777 10778 10780 10784 10786 10787 10789 10791
10609 10613 10616 10618 10625 10632 10638 10640 10645 10649 10655 10661 10667 10674 10680 10685 10690 10695 10701 10705 10709 10713 10714 10723 10728 10733 10737 10740 10743 10747 10750 10754 10755 10757 10758 10760 10760 10761 10764 10765 10769 10770 10772
10597 10604 10607 10611 10616 10623 10624 10626 10633 10640 10646 10650 10657 10663 10669 10674 10680 10685 10688 10691 10693 10698 10703 10709 10714 10717 10720 10724 10727 10731 10733 10735 10736 10739 10740 10742 10743 10743 10744 10744 10745 10746 10749